Weather History for Fort Wayne, IN

Change the Weather History Date:

Tuesday, August 21, 2012

  Actual Average Record
Temperature  
Mean Temperature 66 °F 71 °F  
Max Temperature 79 °F 82 °F 99 °F (1983)
Min Temperature 53 °F 61 °F 45 °F (1950)
Degree Days  
Heating Degree Days 0 0  
Month to date heating degree days 5 0  
Since 1 June heating degree days 31 32  
Since 1 July heating degree days 5 3  
Cooling Degree Days 1 7  
Month to date cooling degree days 107 152  
Year to date cooling degree days 958 658  
Since 1 June cooling degree days 805 601  
Growing Degree Days 16 (Base 50)    
Moisture  
Dew Point 54 °F    
Average Humidity 70    
Maximum Humidity 100    
Minimum Humidity 39    
Precipitation  
Precipitation 0.00 in 0.11 in 2.20 in (1966)
Month to date precipitation 2.71 2.52  
Year to date precipitation 18.06 25.72  
Snow  
Snow 0.00 in 0.00 in 0.00 in (2002)
Month to date snowfall 0.0 0.0  
Since 1 June snowfall 0.0  
Since 1 July snowfall 0.0 0.0  
Snow Depth 0.00 in    
Sea Level Pressure  
Sea Level Pressure 30.06 in    
Wind  
Wind Speed 3 mph (WNW)    
Max Wind Speed 10 mph    
Max Gust Speed 15 mph    
Visibility 10 miles    
Events      
T = Trace of Precipitation, MM = Missing Value Source: NWS Daily Summary

Daily Weather History Graph

Daily Weather History Graph

Search for Another Location

Airport:

Trip Planner

Search our weather history database for the weather conditions in past years. The results will help you decide how hot, cold, wet, or windy it might be!

Date:

Astronomy

Aug. 21, 2012 Rise Set
Actual Time 6:57 AM EDT 8:29 PM EDT
Civil Twilight 6:28 AM EDT 8:58 PM EDT
Nautical Twilight 5:53 AM EDT 9:33 PM EDT
Astronomical Twilight 5:15 AM EDT 10:10 PM EDT
Moon 11:29 AM EDT 10:26 PM EDT
Length of Visible Light 14h 30m
Length of Day
13h 32m
Waxing Crescent, 19% of the Moon is Illuminated
Aug 21
Waxing Crescent
Aug 24
First Quarter
Aug 31
Full
Sep 8
Last Quarter
Sep 15
New

Hourly Weather History & Observations

Time (EDT) Temp. Dew Point Humidity Pressure Visibility Wind Dir Wind Speed Gust Speed Precip Events Conditions
12:54 AM 59.0 °F 55.9 °F 90% 30.01 in 10.0 mi WSW 5.8 mph - N/A   Mostly Cloudy
1:54 AM 59.0 °F 55.9 °F 90% 30.01 in 10.0 mi WNW 3.5 mph - N/A   Mostly Cloudy
2:54 AM 59.0 °F 57.0 °F 93% 30.01 in 10.0 mi Calm Calm - N/A   Mostly Cloudy
3:54 AM 57.9 °F 55.9 °F 93% 30.01 in 10.0 mi Calm Calm - N/A   Mostly Cloudy
4:54 AM 55.0 °F 54.0 °F 96% 30.03 in 10.0 mi West 4.6 mph - N/A   Scattered Clouds
5:54 AM 55.9 °F 55.0 °F 97% 30.03 in 10.0 mi Calm Calm - N/A   Partly Cloudy
6:54 AM 54.0 °F 53.1 °F 97% 30.05 in 6.0 mi West 5.8 mph - N/A   Partly Cloudy
7:54 AM 55.9 °F 55.0 °F 97% 30.06 in 6.0 mi Calm Calm - N/A   Scattered Clouds
8:54 AM 61.0 °F 57.9 °F 90% 30.08 in 9.0 mi West 4.6 mph - N/A   Partly Cloudy
9:54 AM 66.0 °F 57.0 °F 73% 30.08 in 10.0 mi Calm Calm - N/A   Partly Cloudy
10:54 AM 70.0 °F 55.9 °F 61% 30.09 in 10.0 mi NW 5.8 mph - N/A   Partly Cloudy
11:54 AM 73.0 °F 51.1 °F 46% 30.09 in 10.0 mi NW 4.6 mph - N/A   Partly Cloudy
12:54 PM 75.9 °F 54.0 °F 46% 30.09 in 10.0 mi Variable 4.6 mph - N/A   Partly Cloudy
1:54 PM 77.0 °F 54.0 °F 45% 30.08 in 10.0 mi Calm Calm - N/A   Partly Cloudy
2:54 PM 77.0 °F 52.0 °F 42% 30.07 in 10.0 mi Variable 3.5 mph - N/A   Partly Cloudy
3:54 PM 78.1 °F 52.0 °F 40% 30.06 in 10.0 mi Calm Calm - N/A   Partly Cloudy
4:54 PM 78.1 °F 51.1 °F 39% 30.05 in 10.0 mi NW 3.5 mph - N/A   Scattered Clouds
5:54 PM 78.1 °F 53.1 °F 42% 30.06 in 10.0 mi WNW 9.2 mph - N/A   Partly Cloudy
6:54 PM 75.9 °F 53.1 °F 45% 30.07 in 10.0 mi WNW 5.8 mph - N/A   Partly Cloudy
7:54 PM 71.1 °F 54.0 °F 55% 30.07 in 10.0 mi WNW 5.8 mph - N/A   Partly Cloudy
8:54 PM 64.9 °F 53.1 °F 65% 30.09 in 10.0 mi WNW 4.6 mph - N/A   Partly Cloudy
9:54 PM 62.1 °F 53.1 °F 72% 30.11 in 10.0 mi Calm Calm - N/A   Clear
10:54 PM 62.1 °F 53.1 °F 72% 30.11 in 10.0 mi Calm Calm - N/A   Clear
11:54 PM 57.0 °F 51.1 °F 81% 30.11 in 10.0 mi Calm Calm - N/A   Clear